Hourly Data Report for August 02, 2017

PITT MEADOWS CS
BRITISH COLUMBIA

49°12'29.964" N
122°41'24.076" W
5.00 m
1106178
71775
WMM

Download Data

Hourly Data (August 2017)
Hourly Data Report for August 2, 2017
TIME
LST
Temp Definition
°C
Dew Point Definition
°C
Rel Hum Definition
%
Precip. Amount Definition
mm

Wind Dir Definition
10's deg

Wind Spd Definition
km/h
Visibility Definition
km
Stn Press Definition
kPa
Hmdx Definition


Wind Chill Definition


Weather Definition


00:00 17.8 15.8 88 0.0 0 1   101.77     LegendNANA
01:00 17.2 15.3 88 0.0   0   101.78     LegendNANA
02:00 16.6 15.0 90 0.0 31 1   101.81     LegendNANA
03:00 15.2 13.4 89 0.0 0 1   101.82     LegendNANA
04:00 15.7 14.6 93 0.0   0   101.81     LegendNANA
05:00 14.9 13.7 92 0.0 12 1   101.83     LegendNANA
06:00 16.1 14.6 91 0.0 9 3   101.85     LegendNANA
07:00 18.3 15.6 84 0.0 0 1   101.85     LegendNANA
08:00 20.0 16.1 78 0.0 0 1   101.85 25   LegendNANA
09:00 22.1 16.0 69 0.0 24 2   101.83 27   LegendNANA
10:00 24.7 15.8 58 0.0 26 5   101.80 29   LegendNANA
11:00 27.0 15.2 48 0.0 22 5   101.76 31   LegendNANA
12:00 29.1 14.5 41 0.0 24 6   101.69 33   LegendNANA
13:00 30.4 16.2 42 0.0 26 9   101.65 35   LegendNANA
14:00 31.7 13.2 33 0.0 27 14   101.60 35   LegendNANA
15:00 30.9 12.2 32 0.0 26 14   101.52 33   LegendNANA
16:00 30.3 14.3 38 0.0 27 11   101.46 34   LegendNANA
17:00 29.2 14.4 40 0.0 26 11   101.41 33   LegendNANA
18:00 28.2 14.4 43 0.0 26 9   101.38 32   LegendNANA
19:00 26.8 13.9 45 0.0 28 4   101.37 30   LegendNANA
20:00 22.9 14.6 60 0.0   0   101.39 27   LegendNANA
21:00 19.9 15.6 76 0.0   0   101.43     LegendNANA
22:00 19.4 15.2 77 0.0 24 1   101.45     LegendNANA
23:00 18.1 15.8 86 0.0 11 2   101.46     LegendNANA

Notes on Data Quality.

Legend

  • E = Estimated
  • M = Missing
  • NA = Not Available*
  • [empty] = Indicates an unobserved value
Date modified: